This is the latest recevied weather packets stored in our database for station/object SP4MGL-10. If no packets are shown the sender has not sent any weather packets the latest 10 day(s).
| Time | Temp. | Humidity | Pressure | Rain* | Wind** | Luminosity | Snow |
|---|---|---|---|---|---|---|---|
| 1787993976 | 16.11° C | 94% | 1012.6 hPa | - | - | - | - |
| 1787993076 | 16.11° C | 93% | 1012.3 hPa | - | - | - | - |
| 1787992176 | 17.22° C | 91% | 1012.1 hPa | - | - | - | - |
| 1787991276 | 16.67° C | 91% | 1012 hPa | - | - | - | - |
| 1787990376 | 16.11° C | 91% | 1011.6 hPa | - | - | - | - |
| 1787989475 | 15.56° C | 91% | 1011.7 hPa | - | - | - | - |
| 1787988575 | 15° C | 90% | 1011.5 hPa | - | - | - | - |
| 1787987675 | 14.44° C | 89% | 1011.7 hPa | - | - | - | - |
| 1787986775 | 14.44° C | 88% | 1011.9 hPa | - | - | - | - |
| 1787985884 | 13.89° C | 87% | 1012.1 hPa | - | - | - | - |
| 1787984975 | 14.44° C | 81% | 1011.7 hPa | - | - | - | - |
| 1787984074 | 15° C | 75% | 1011.9 hPa | - | - | - | - |
| 1787983174 | 16.11° C | 69% | 1011.9 hPa | - | - | - | - |
| 1787982273 | 16.11° C | 68% | 1011.9 hPa | - | - | - | - |
| 1787982212 | 16.11° C | 68% | 1011.8 hPa | - | - | - | - |
| 1787981312 | 16.67° C | 64% | 1011.7 hPa | - | - | - | - |
| 1787980412 | 16.67° C | 62% | 1011.3 hPa | - | - | - | - |
| 1787979512 | 16.67° C | 62% | 1011.2 hPa | - | - | - | - |
| 1787978612 | 16.67° C | 62% | 1011.4 hPa | - | - | - | - |
| 1787977711 | 16.67° C | 61% | 1011.3 hPa | - | - | - | - |
| 1787976811 | 16.67° C | 61% | 1011.2 hPa | - | - | - | - |
| 1787975911 | 16.67° C | 61% | 1011.3 hPa | - | - | - | - |
| 1787975011 | 16.67° C | 60% | 1011.4 hPa | - | - | - | - |
| 1787974110 | 16.67° C | 60% | 1011.4 hPa | - | - | - | - |
| 1787973210 | 16.67° C | 60% | 1011.2 hPa | - | - | - | - |
* Rain since midnight (hover to see other rain measurements)
** Current wind speed in m/s (hover to see current wind gust speed)